GFSGBSN_prec_radar_225.txt.gz
Reflectivity
10 6 2 3 -8 -20 -20 -20 -20 -20 -20 -20 -20 -20 -20 -20 -20 -20 -2 1 -20 -20 -20 -20 -20 -20 -14 6 -12 -20 -20 -20 -20 -20 -20 -20 -20 -20 -20 -20 -20 -20 -20 -20 -20 -20 -20
-20 -19 -15 -20 -20 -20 -20 -20 -20 -20 -20 -20 -20 -20 -20 -20 -20 -20 -20 -8 -20 -20 -20 -20 -20 -20 -13 -20 -20 -20 -20 -20 -20 -20 -20 -20 -20 -20 -20 -20 -20 -20 -20 -20 -20 -20 -20
-20 -20 -20 -20 -20 -20 -20 -20 -20 -20 -20 -20 -20 -20 -20 -20 -20 -20 -20 -20 -20 -20 -20 -20 -20 -20 -18 -20 -20 -20 -20 -20 -20 -20 -20 -20 -20 -20 -6 -19 -20 -20 -20 -20 -20 -20 -20
-20 -16 -16 -20 -20 -20 -20 -20 -20 2 -1 1 -6 -20 -20 -20 -20 -20 -20 -20 -18 -17 -20 -20 -20 -8 -20 -20 -20 -20 -20 -20 -20 -20 -20 -20 -20 -20 -20 -20 -20 -20 -20 -20 -20 -20 -19
-13 -11 -0 2 2 -20 -20 -20 -3 -14 -20 -20 -20 -20 -20 -20 -20 -20 -15 -20 -20 -20 -20 -20 -20 -20 -20 -20 -20 -20 -20 -20 -20 -20 -20 -20 -20 -20 -20 -20 -20 -20 -20 -20 -20 -15 -20
-20 -20 -20 -20 -20 -12 2 2 -20 -20 -20 -20 -20 -20 -20 -20 -20 -4 -20 12 -20 -20 -20 -20 -20 -13 -20 -20 -20 -20 -20 -20 -20 -20 -20 -20 -20 -20 -20 -20 -20 -20 -20 -20 -20 -19 -17
-20 -20 -20 -20 -20 -20 -20 3 2 -20 -20 -20 -20 -20 -20 -20 -20 -20 -20 -20 -20 -13 -5 -20 -20 -20 -20 -20 -20 -20 -20 -20 -20 -20 -20 -20 -20 -20 -20 -20 -20 -20 -20 -20 -20 -20 -10
-16 -14 -17 -20 -5 -16 -13 1 -20 -20 -20 -20 -20 -20 -20 -20 -20 -1 11 10 19 25 7 -20 -20 -20 -20 -20 -20 -20 -20 -11 -17 -20 -20 -1 -20 -20 -20 -20 -20 -20 -20 -20 -20 -20 -9
-20 -20 -19 -2 5 -2 -20 -6 -20 -20 -20 -20 -20 -20 -20 -20 -20 -7 12 16 32 15 31 -20 -20 -20 -20 -20 -20 -20 -20 -20 3 -20 -20 -20 -20 -20 -20 -20 -20 -20 -20 -20 -20 -20 -20
-20 -20 -20 -8 -10 -7 -20 -20 -20 -20 -20 -20 -20 -20 -20 -20 18 19 31 31 2 3 -20 -20 -20 -20 -20 -20 -20 -20 -20 -20 -20 -16 -20 6 -20 -20 -20 -20 -20 -20 -20 -20 -20 -20 -20
-20 -10 -20 -14 1 -20 -20 -20 -20 -20 -20 -20 -20 -20 -20 -20 12 39 34 2 14 4 -20 -6 -19 -12 -20 -20 -20 -20 -20 -20 -20 5 3 -20 -20 -20 -19 -20 -20 -20 -20 -20 -20 -20 -20
-20 2 4 -1 -20 -20 -20 -20 -20 -20 -20 -20 -20 -20 -15 -20 20 21 12 -7 21 -13 -20 16 8 -1 -5 -1 -16 -20 -20 -20 -20 -20 21 -20 -20 1 -20 -20 -6 -20 -20 -20 -20 -20 -20
-20 -10 5 5 -2 -20 -20 -20 -20 -20 -20 -20 -20 -20 -20 -20 21 7 -7 -4 -20 -10 -20 -11 -1 2 -4 -8 -20 -20 -20 -20 -20 -15 13 -20 -20 -20 -20 -20 -19 -20 11 13 11 13 -20
0 -16 4 5 -6 -14 -19 -20 -20 -20 -20 -20 -20 -20 -20 -20 -20 -3 9 -11 -20 -20 -20 -20 -19 -10 -20 6 -20 -1 -20 -20 5 -20 -16 -20 -20 -3 -20 -17 6 -17 1 6 10 -20 -20
4 6 -10 -13 -20 -20 -20 -20 -20 -20 -20 -20 -20 -20 -20 -20 -20 -20 -20 -20 -20 -20 -20 -20 -20 -20 -20 -20 -20 -11 -0 11 13 -3 -12 9 -13 -20 -20 -20 12 4 18 -20 -15 -20 -0
4 -1 -16 -7 -20 -20 -20 -20 -20 -20 -20 -20 -20 -20 -20 -20 -20 -20 -20 -20 -20 -20 -20 -20 -20 -20 -20 -17 -20 -1 8 10 7 -1 -14 9 -16 -20 -20 -13 -9 -4 -15 21 12 23 11
2 -14 -20 -20 -20 -20 -20 -20 -20 -20 -20 -20 -20 -20 -20 -20 -20 -20 -20 -20 -20 -20 -20 -20 -20 -20 -20 -20 -20 -20 8 4 -1 -18 -18 -20 -9 -20 -20 -3 -10 -10 17 31 31 34 14
-4 -20 -20 -20 -20 -20 -20 -20 -20 -20 -20 -20 -20 -20 -20 -20 -20 -20 -20 -20 -20 -20 -20 -20 -20 -20 -20 -20 -20 -20 -20 -16 -8 -20 -20 -20 -20 -20 -20 -19 9 11 20 23 21 22 33
-20 -20 -20 -20 -20 -20 -20 -20 -20 -20 -20 -20 -20 -20 -20 -20 -20 -20 -20 -20 -20 -20 -20 -20 -20 -20 -20 -20 -18 -11 -20 -20 4 9 -17 -19 -20 -20 -20 -20 5 15 17 18 21 18 7
-20 -20 -20 -20 -20 -20 -20 -20 -20 -20 -20 -20 -20 -20 -20 -20 -20 -20 -20 -20 -20 -20 -20 -7 -20 -20 -20 -20 -20 -20 -20 -20 -20 -11 5 -14 -20 -20 -20 -20 -14 8 4 11 14 18 10
-4 -20 -20 -20 -20 -20 -20 -20 -20 -8 -20 -20 -20 -20 -20 -20 -20 -20 -20 -20 -20 -20 -20 -20 -20 -20 -0 5 -20 -20 -20 -20 -20 -20 -20 -2 -20 -6 -20 -20 -20 -20 -20 -19 -0 -2 16
-19 7 -20 -20 -20 -20 -20 -20 -20 -12 -20 -20 -20 -20 -20 -20 -20 -20 -20 -20 -20 -20 -20 -20 -20 -20 4 5 -20 -20 -17 -20 -20 -20 -20 -9 -20 -10 -9 -20 -20 -20 -20 -20 -20 -13 -14
10 -20 7 -18 -20 -20 -20 -20 -20 -3 -20 -20 -20 -20 -20 -20 -20 -18 -20 -20 -20 -20 -20 -20 -17 -20 -20 -20 -20 -20 -20 -20 -20 -20 -20 -20 -20 -20 -20 -20 -8 3 -20 -20 -20 -20 -6
-19 -8 -20 8 -4 -20 -20 -20 -20 11 -20 -20 -20 -20 -11 -19 -20 -20 -20 -20 -20 -20 -14 -20 -20 -20 -20 -20 -20 -20 -20 -20 -20 -20 -20 -20 -20 -20 -20 -20 4 -20 -20 -20 -20 -20 -20
10 -20 6 -20 -20 2 4 -20 -20 -20 5 -20 -20 -1 22 8 -20 -20 -20 -20 -20 -20 -20 -20 -20 -20 -20 -20 -20 -20 -20 -20 -20 -20 -20 -20 -20 2 10 -20 -20 -20 -20 -20 -20 -20 -20
-20 12 9 1 -20 -7 -20 -7 -4 -20 16 -20 -20 -1 21 12 -20 -20 -20 -20 -20 -20 -20 -20 -20 -20 -20 -20 -18 -0 -20 -20 -20 -20 -20 -20 -20 -3 -20 -20 -20 -20 -20 -20 -20 -20 -20
-20 -20 -5 -0 10 11 -4 -20 -20 -7 7 15 -20 -20 -12 12 -20 -20 -20 -20 -20 -20 -12 -20 -20 -13 -20 -20 3 7 -9 -20 -16 -20 -20 -20 -20 -6 -13 -4 -20 -20 -20 -20 -20 -20 -20
5 -1 -10 -20 -20 -18 -3 10 12 14 14 6 9 -5 6 -19 -20 -20 -20 -20 -20 -20 -20 -20 -5 -20 -20 13 -3 -20 -20 -20 -20 -20 -20 -20 -6 -19 -12 0 -6 -20 -20 -20 -20 -20 -20
11 12 12 12 8 -2 -5 -20 -10 -18 -4 13 17 5 8 27 10 -20 -20 -20 -20 -20 -20 -20 -6 -9 -20 -15 -9 9 13 16 -8 10 1 9 -17 3 1 -19 -20 -20 -20 -20 -20 -20 -20

GFSGBSN_prec_radar_228.txt.gz
Reflectivity
-10 -5 -5 -2 -2 -1 -2 -17 -20 -20 -20 -20 -20 -20 -20 -20 -20 -20 -20 -20 -20 9 -17 -20 -20 -20 -20 -5 -20 -20 -20 -20 -20 -20 -20 -20 -20 -20 -20 -20 -20 -20 -20 -20 -20 -20 -20
-20 -20 -20 -20 -20 -20 -20 -2 -20 -20 -20 -20 -20 -20 -20 -20 -20 -20 -20 -20 -20 -14 1 -20 -20 -15 -20 -20 -20 -20 -20 -20 -14 -19 -15 -15 -20 -20 -20 -20 -20 -20 -20 -20 -20 -20 -20
-20 -20 -20 -20 -20 -20 -20 -20 -20 -20 -20 -20 -20 -20 -20 -20 -20 -20 -20 -20 -20 -20 -3 -20 -20 2 -1 -20 -20 -20 -20 -20 -20 -20 -20 -19 -19 -20 -20 -20 -20 -20 -20 -20 -20 -20 -20
-20 -20 -8 -6 -1 -16 -18 -16 2 -0 -2 -20 -16 -20 -20 -20 -20 -20 -20 -20 -20 -20 -20 -20 -13 -6 -17 -20 -20 -20 -20 -20 -20 -20 -20 -20 -20 -20 -20 -20 -20 -20 -20 -20 -20 -20 -20
-20 -20 -20 -20 -20 -20 -20 -7 -2 -4 -20 -20 -4 -12 -20 -20 -20 -20 -20 -20 -20 -20 -20 3 -18 -20 -20 -20 -20 -20 -17 -20 -20 -20 -20 -20 -20 -20 -20 -20 -20 -20 -20 -20 -20 -17 -20
-20 -20 -20 -20 -20 -20 -20 -20 -20 -20 -20 -20 -20 -15 -1 -6 -20 -20 -20 -20 -20 -20 -17 -20 8 -20 -20 -20 -20 -20 -20 -20 -20 -20 -20 -20 -20 -20 -20 -20 -20 -20 -20 -20 -20 -20 -20
-18 3 3 -5 -2 -4 -20 -20 -7 -10 -5 -3 -20 -5 -20 -20 -20 -20 -20 -20 -20 -20 -6 -20 -20 -20 -20 -20 -20 -20 -20 -20 -20 -20 -20 -20 -20 -20 -20 -20 -20 -20 -20 -20 -20 -20 -2
-20 -20 -20 -14 -3 4 -9 -20 -8 -3 -3 2 -20 -6 -20 -20 -20 -15 -13 15 17 17 28 -20 -20 -20 -20 -20 -20 -19 -20 -19 -8 -20 -20 -20 -20 -20 -20 -20 -20 -20 -20 -20 -20 -20 -16
0 -1 0 -2 -0 -7 0 1 -20 -20 -20 -20 -20 -20 -20 -20 -20 -20 -18 24 -4 16 32 -20 -20 -20 -20 -20 -20 -19 -0 -18 -11 -20 -20 -20 -20 -20 -20 -20 -20 -20 -20 -20 -20 -20 -20
-0 -12 4 1 2 6 -11 -17 -20 -20 -20 -20 -20 -20 -20 -20 -20 -4 7 29 13 40 -10 11 -9 -20 -20 -20 -20 -20 -18 1 4 2 -17 -20 -20 -20 -20 -20 -20 -20 -20 -20 -20 -20 -20
-18 -14 6 -0 5 -11 -16 -20 -2 -20 -20 -20 -20 -20 -20 -20 -20 -12 28 -16 -19 18 -19 19 7 -9 24 9 8 -20 -20 -20 -17 6 9 -0 -20 -20 -20 -20 -20 -20 -20 -20 -20 -20 -20
-20 1 1 1 8 8 -13 -20 -20 -20 -20 -20 -20 -20 -20 -20 -20 -20 10 15 1 -16 -5 14 8 -16 16 11 -20 -20 -20 -20 -20 -20 6 5 -8 -12 -20 -20 -20 -20 -20 -20 -20 -20 -20
-14 -1 2 3 -4 4 -20 -20 -20 -20 -20 -20 -20 -20 -20 -20 -20 -20 -20 -8 -20 -20 -20 -20 -20 -14 5 -18 -20 -20 -11 -20 -20 -20 -20 -20 -9 -20 -20 6 -8 12 11 14 -6 5 -20
-9 -16 -0 -2 -11 -16 1 -19 -20 -20 -20 -20 -20 -20 -20 -20 -20 -20 -6 -20 -20 -20 -20 -20 -20 -7 -20 -20 -20 9 14 3 -20 -20 -20 -20 -16 0 -20 -17 -17 -14 16 10 7 -17 -20
1 0 -14 -1 -20 -20 -20 -20 -20 -20 -20 -20 -20 -20 -20 -20 -20 -20 -20 -20 -20 -20 -11 -20 -20 -20 -20 -20 -20 -2 12 14 5 -18 -20 -20 -20 -20 -20 -20 -1 -16 16 -20 5 -20 -20
-1 -0 -20 2 -20 -20 -20 -20 -20 -20 -20 -20 -20 -20 -20 -20 -20 -20 -20 -20 -20 -20 -20 -20 -20 -20 -20 -20 -20 -20 -2 -1 -17 -20 -20 -20 -20 -20 -20 -20 -20 6 -15 18 24 13 3
-20 2 -20 -17 -20 -20 -20 -20 -20 -20 -20 -20 -20 -20 -20 -20 -20 -20 -20 -20 -20 -20 -20 -20 -20 -20 -14 -20 -20 -20 1 -15 -20 -20 -20 -20 -20 -20 -20 -17 -20 14 -13 22 32 30 -7
-20 -18 -11 -20 -20 -20 -20 -20 -20 -20 -20 -20 -20 -20 -20 -20 -20 -20 -20 -20 -20 -20 -20 -20 -20 -20 -20 -20 -20 -20 0 -20 -5 -20 -20 -20 -20 -20 -20 -18 10 11 -14 -16 11 3 30
-18 -20 -20 -20 -20 -20 -20 -20 -20 -20 -20 -20 -20 -20 -20 -20 -20 -20 -20 -20 -20 -20 -20 -20 -20 -20 -20 -20 -20 -20 -20 -20 -20 -5 -20 -20 -20 -20 -20 -20 -13 14 22 8 14 20 -17
9 -20 -20 -20 -20 -20 -20 -20 -20 -20 -20 -20 -20 -20 -20 -20 -20 -20 -20 -20 -20 -20 -20 -20 -20 -20 -20 -20 -20 -20 -20 -20 -20 -20 -20 -4 -20 -20 -20 -20 -15 -20 -12 12 11 12 11
5 -6 -20 -20 -20 -20 -20 -20 -20 -18 -20 -20 -20 -20 -20 -20 -20 -20 -20 -20 -20 -20 -20 -20 -20 -20 10 9 -20 -20 -20 -20 -20 -20 -20 -20 -20 -20 -20 -20 -19 -20 -20 -19 1 -7 4
6 -20 -6 -20 -20 -20 -20 -20 -20 5 -20 -20 -20 -20 -20 -20 -20 -20 -20 -20 -20 -20 -20 -20 -20 -20 -20 -5 -20 -14 -20 -20 -20 -20 -20 -20 -20 1 -20 -20 -20 -20 -20 -20 -20 -20 -20
-12 10 -20 5 -14 -20 -20 -20 -20 -1 -20 -20 -20 -20 -20 -20 -20 -20 -20 -20 -20 -20 -20 -20 -20 -20 -20 -20 -20 -20 -20 -20 -20 -20 -20 -20 -20 -20 -20 -20 -20 -20 -20 -20 -20 -20 -20
-9 -20 -9 -20 -9 12 -20 -20 -20 1 -20 -20 -20 -20 -20 -20 -20 -20 -20 -20 -20 -20 -20 -20 -20 -20 -20 -20 -20 -20 -20 -20 -20 -20 -20 -20 -9 6 -7 -16 5 -20 -20 -20 -20 -20 -20
-20 5 -14 -16 -20 -20 -17 6 -20 -20 11 -20 -20 8 15 -15 -20 -20 -20 -20 -20 -20 -20 -20 -20 -20 -20 -20 -20 -20 -20 -20 -20 -20 -20 -20 -1 -3 8 -16 -20 -20 -20 -20 -20 -20 -20
-4 -19 2 12 1 2 6 2 -7 -19 13 -20 -20 -17 17 10 -20 -20 -20 -20 -20 -20 -20 -20 -20 -20 -20 -20 -19 3 -18 -20 -20 -20 -20 -20 -13 3 -18 -11 -20 -20 -20 -20 -20 -20 -20
-1 -20 -20 -20 7 12 12 13 14 14 8 15 3 -20 -11 6 -20 -20 -20 -20 -20 -20 -20 -20 -20 -20 -20 -19 -14 -7 -6 -20 8 -20 -20 -20 -12 -8 -19 -10 -20 -20 -20 -20 -20 -20 -20
11 11 6 -11 -20 -20 -13 5 14 12 13 10 -5 -20 10 -0 -20 -13 -20 -20 -20 -16 1 -20 -16 -20 -20 -20 -20 -20 -20 -20 -20 -20 -20 -20 -14 -20 -6 5 -9 -20 -20 -20 -20 -20 -20
13 9 12 12 10 10 6 1 -18 1 13 14 -18 10 16 24 -1 -20 -20 -20 -20 -20 -20 -10 -6 -20 -20 -13 -18 -20 -20 -2 -20 -19 -20 3 -17 4 -13 -20 -20 -20 -20 -15 2 -4 -20

GFSGBSN_prec_radar_234.txt.gz
Reflectivity
-20 -20 -20 -20 -20 -20 -20 -20 -20 -20 -20 -20 -20 -20 -20 -20 -20 -20 -20 -20 -20 -20 -20 -20 -15 -5 -20 -20 -20 -20 -20 -20 -20 -20 -20 -20 -20 -20 -20 -20 -20 -20 -20 -20 -20 -4 -20
1 -5 -14 -17 -20 -20 -20 -20 -19 -8 -20 -20 -20 -20 -20 -20 -20 -20 -20 -20 -20 -20 -20 -20 -14 -2 8 -20 -20 -20 -20 -20 -20 -20 -20 -20 -20 -20 -20 -20 -20 -20 -20 -20 -20 -20 -13
-20 -20 -20 -20 -20 -20 -20 -20 -20 -20 -20 -20 -20 -20 -20 -20 -20 -20 -20 -20 -20 -20 -20 -20 -20 3 9 -20 -20 -20 -20 -20 -20 -20 -20 -20 -20 -20 -20 -20 -20 -20 -20 -20 -20 -20 -18
-20 -20 -20 -20 -20 -20 -20 -20 -20 -20 -20 -20 -20 -20 -20 -20 -20 -20 -20 -20 -20 -20 -20 -20 -8 12 7 -20 -20 -20 -20 -20 -20 -20 -20 -20 -20 -20 -20 -20 -20 -20 -20 -20 -20 -20 -20
-20 -9 -9 -17 0 -13 -20 -20 -20 -20 -20 -20 -20 -20 -20 -20 -20 -20 -20 -20 -20 -20 -20 -20 1 13 -18 -20 -20 -20 -20 -20 -20 -20 -20 -20 -20 -20 -20 -20 -20 -20 -20 -20 -20 -20 -20
-11 -18 -20 -20 -19 -20 -20 -20 -20 -20 -20 -20 -20 -20 -20 -20 -20 -20 -20 -20 -20 -20 -20 -20 3 2 -20 -20 -20 -20 -20 -20 -20 -20 -20 -20 -20 2 -20 -20 -20 -20 -20 -20 -20 -20 -20
-20 -17 1 -15 -20 -20 -20 -20 -20 -20 -20 -20 -20 -20 -20 -20 -20 -20 -20 -20 -20 -20 -20 -20 -11 10 -20 -20 -20 -20 -20 -20 -20 -20 -20 -20 11 -20 -20 -20 -20 -20 -20 -20 -20 -20 -20
-10 -20 -20 -20 -20 -20 -15 -14 -20 -20 -20 -20 -20 -20 -20 -20 -20 -20 -20 -2 5 8 -8 -20 17 -9 9 -20 -6 -20 -20 -20 -17 -20 -20 -20 4 -20 -20 -20 -20 -20 -20 -20 -20 -20 -20
-20 -20 -20 -11 7 10 8 -20 -20 -20 -20 -20 -20 -20 -20 -20 -20 -20 -9 -11 -2 -2 9 -20 -20 -20 -20 -18 8 -12 -20 -20 11 -20 -20 -20 -20 -20 -19 -20 -20 -20 -20 -20 -20 -9 -20
-20 -20 -20 -17 -18 3 -15 -13 -20 -20 -20 -20 -20 -20 -20 -20 -20 -20 3 -20 -10 11 17 -20 -20 -9 -7 17 9 -20 -20 -20 -8 -11 -20 -20 -20 -20 -16 -14 -18 -20 -20 -20 -20 -20 -20
-20 -18 -11 -2 -7 -20 -20 -20 -20 -20 -20 -20 -20 -20 -20 -20 -20 -20 -20 -20 -20 14 15 -20 -20 -20 -20 -12 -6 -9 -20 -20 -20 16 -20 -20 -20 -20 -19 -20 -20 -20 -20 -20 -20 -20 -18
-20 -20 -20 -6 -20 -20 -20 -20 -20 -20 -20 -20 -20 -20 -20 -20 -7 -20 -20 -20 5 -7 -16 -20 -20 -20 -20 -17 8 6 18 -20 -20 -20 12 -20 -20 -20 -20 -20 -14 -15 -1 -8 -20 -20 9
-20 -20 -18 -20 -17 -20 -20 -20 -20 -20 -20 -20 -20 -20 -20 -20 -20 -20 -20 -20 -13 -20 -20 -20 -20 -20 -20 -20 -20 11 18 -3 4 -3 -20 7 -17 -20 -20 -20 -20 7 14 13 13 9 -20
-18 -20 -11 -20 -20 -20 -20 -20 -20 -20 -20 -20 -20 -20 -20 -20 -20 -20 -20 -20 -20 -20 -20 -20 -20 -20 -20 -20 -20 -5 7 9 -20 -20 11 -5 -20 -20 -20 -20 -20 -4 8 -12 -17 -20 -20
6 -20 -12 -18 -20 -20 -20 -20 -20 -20 -20 -20 -20 -20 -20 -20 -20 -20 -20 -20 -20 -20 -20 -20 -20 -20 -20 -20 -20 -20 -20 -1 -11 -20 10 -9 12 -16 -20 -20 -19 -19 4 4 -4 -10 -18
3 -20 -10 -20 -20 -20 -20 -20 -20 -20 -20 -20 -20 -20 -20 -20 -20 -20 -14 -20 -20 -20 -20 -20 -20 -20 -20 -20 -20 -3 7 -0 -4 -20 -20 -12 -20 -14 -20 -11 -3 7 -1 8 14 8 5
-11 -20 -20 -15 -20 -20 -20 -20 -20 -20 -20 -20 -20 -20 -20 -20 -20 -20 -12 -20 -20 -20 -20 -20 -20 -20 -16 -20 -20 15 8 -12 9 -15 -20 -20 -20 -20 -20 5 6 1 17 38 20 16 13
-12 11 -20 -19 -20 -20 -20 -20 -20 -20 -20 -20 -20 13 -20 -20 -20 -20 -20 -20 -20 -20 -20 -20 -20 -20 -20 1 -15 8 8 -19 -18 1 10 8 -20 -20 -20 -20 -20 -20 9 9 25 28 29
4 -16 -20 -20 -20 -20 -20 -20 -20 -20 -20 -20 -20 -20 -20 -20 -20 -20 -20 -20 -20 -20 -20 -20 -1 -7 1 6 -2 -15 -20 -20 -20 -20 -20 -19 2 -10 7 1 -18 -20 -20 -11 -15 8 7
8 -20 10 -20 -20 -20 -20 -20 -20 -20 -20 -20 -7 7 8 -20 -20 -20 -20 -20 -20 -20 -20 -20 -20 -20 11 -6 10 -20 0 -20 -20 -20 -20 -2 -3 5 -7 -5 -13 -20 -20 -20 -20 -2 -17
9 -20 -1 -16 -20 -20 -20 -20 -20 -20 -20 -20 -18 -20 -20 -20 -8 -20 -20 -20 -20 -20 -20 -20 2 7 9 8 -20 -11 1 -20 -20 -20 12 16 3 5 -20 -20 -20 -20 -20 -20 -20 -20 -19
-20 0 -20 -20 -20 -20 -20 -20 -20 -20 -20 -20 7 -20 -20 -20 -20 -20 -20 -20 -20 -20 -20 -20 3 11 11 8 10 1 3 -15 -1 -20 5 5 -15 -8 -20 -20 -20 -20 -20 -20 -20 -20 -20
11 -18 -10 0 -20 -20 -20 -20 -20 -20 -20 -17 -20 -20 -20 -19 -20 -20 -20 -20 -20 -20 -20 -19 6 12 8 9 -20 -20 -5 -20 -20 -11 -20 5 6 7 -1 -20 -20 -19 -20 -20 -20 -20 -20
10 10 -3 0 -2 0 10 -20 -20 -1 -20 -10 -20 -5 7 -3 -20 -17 -20 -20 -20 -15 5 3 3 9 -3 -20 -20 -20 -20 -20 -20 -20 -11 8 11 14 10 9 7 -20 -20 -20 -20 -20 -20
7 11 -0 2 10 10 -5 4 -2 -20 -10 0 -20 -11 4 3 -11 -20 -20 -20 -20 -12 -20 -20 -20 -16 -20 16 6 -20 -20 -20 -20 -20 -20 -15 10 17 15 10 -12 -20 -20 -20 -20 -20 -20
9 8 10 -13 2 9 11 10 12 11 -1 14 -14 12 15 15 -5 -20 -19 -19 -3 -1 -20 -20 -20 -20 -20 -18 8 -12 -20 -20 -20 -20 -20 -20 -10 14 15 11 7 -20 -20 -20 -20 -20 -20
10 8 11 8 8 4 7 6 0 1 7 14 8 15 17 16 -9 -3 1 -0 -4 -2 -8 -12 3 5 5 10 6 3 -12 -20 -20 -20 8 4 7 15 15 15 8 -20 -20 -20 -8 -20 -20
10 9 9 8 9 -1 -2 -6 5 7 5 9 -2 -7 0 11 7 0 -8 -7 -12 1 5 0 5 -2 11 11 6 4 7 0 5 -18 -20 8 19 21 16 14 11 -19 -20 -17 -20 -20 -20
11 11 10 6 10 10 3 8 1 -1 -5 10 13 8 2 17 5 4 -14 -20 -19 -20 5 3 -5 1 10 13 13 14 10 3 6 5 -20 -7 -18 9 -17 -4 -20 -20 -8 -20 -20 -19 -20

GFSGBSN_prec_radar_237.txt.gz
Reflectivity
-20 -20 -20 -20 -20 -20 -20 -20 -20 -20 -20 -20 -20 -20 -20 -20 -20 -20 -20 -20 -20 -20 -20 -20 -20 -20 -20 -20 -20 -20 -20 -20 -20 -20 -20 -20 -20 -20 -20 -20 -20 -20 -20 10 -11 -20 -20
-20 -20 -20 -20 -20 -20 -20 -20 -20 -20 -20 -20 -20 -20 -20 -20 -20 -20 -20 -20 -20 -20 -20 -20 -20 -20 -20 -20 -20 -20 -20 -20 -20 -20 -20 -20 -20 -20 -20 -20 -20 -20 -20 -20 -4 -8 7
-20 -20 -20 -20 -20 -20 -20 -20 -20 -20 -20 -20 -20 -20 -20 -20 -20 -20 -20 -20 -20 -20 -20 -20 -20 -20 -20 -20 -20 -20 -20 -20 -20 -20 -20 -20 -20 -20 -20 -20 -20 -20 -20 -20 -20 -20 -20
-20 -20 -20 -20 -20 -19 -20 -20 -20 -20 -20 -20 -20 -20 -20 -20 -20 -20 -20 -20 -20 -20 -20 -20 -20 -18 -4 -20 -20 -20 -20 -20 -20 -20 -20 -20 -20 -20 -20 -20 -20 -20 -20 -20 -20 -20 -20
-7 8 5 -0 2 4 3 -10 -20 -20 -20 -20 -20 -20 -20 -20 -20 -20 -20 -20 -20 -20 -20 -20 -16 11 -15 -20 -20 -20 -20 -20 -20 -20 -20 -20 -11 -20 -20 -20 -20 -20 -20 -20 -20 -20 -20
-16 -20 -20 -10 -5 -20 -18 -3 -20 -20 -20 -20 -20 -20 -20 -20 -20 -20 -20 -20 -20 -20 -20 -20 -20 -12 20 -2 -9 -20 -20 -20 -20 -20 -20 -20 -20 6 -5 -20 -20 -20 -20 -20 -20 -20 -20
-20 -3 -20 -20 -20 -20 -20 1 -20 -20 -20 -20 -20 -20 -20 -20 -20 -20 -20 -20 -20 -1 -20 -20 -20 -20 -20 -20 -20 -20 -20 -20 -20 -20 -20 -20 -5 4 -20 -20 -20 -20 -20 -20 -20 -20 -20
-20 -20 -20 -20 2 3 -8 -19 -20 -20 -20 -20 -20 -20 -20 -20 -20 -20 -20 -14 7 4 -9 -20 -20 -20 -20 -20 -20 -20 -18 -20 -20 -20 -20 -20 -0 -20 -20 -20 -20 -20 -20 -20 -20 -20 -1
-20 -20 -20 -20 -20 -20 -20 1 -20 -20 -20 -20 -20 -20 -20 -20 -20 -10 -13 0 -20 -14 6 -20 -20 -13 -20 -20 -1 10 10 -20 -12 -16 -20 -20 -20 -20 -20 -10 -20 -20 -20 -20 -20 -20 -20
-20 -20 -20 -20 -10 -20 -20 -20 -20 -20 -20 -20 -20 -20 -20 -20 -19 -20 -3 -20 -8 4 3 -18 -20 -20 -8 -20 9 -20 -6 -14 2 6 -20 -20 -20 -20 -20 -20 3 -20 -20 -20 -3 -14 -20
-18 -20 -20 -20 -20 -20 -20 -20 -20 -20 -20 -20 -20 -20 -20 -20 -20 -14 -20 -20 -20 9 10 -20 -20 -20 -5 -20 -20 17 -20 -9 -20 -5 25 -17 -20 -20 -20 -20 -17 -1 -20 -19 -4 7 -17
-18 -20 -20 -20 -20 -20 -20 -20 -20 -20 -20 -20 -20 -20 -20 -20 -17 -20 -20 -20 -10 11 1 -20 -20 -20 -20 -20 -13 -11 26 -20 6 7 -3 -20 -20 -20 -20 -20 -17 -20 7 -4 6 -8 1
6 -20 -20 -20 -3 -20 -20 -20 -20 -20 -20 -20 -20 -20 -20 -20 -20 -20 -20 -20 13 -13 -20 -20 -20 -20 -20 -20 -20 4 18 22 15 20 -5 -20 -7 -20 -11 -20 -17 8 11 26 20 24 4
5 -20 -20 -20 -20 -20 -20 -20 -20 -20 -20 -20 -20 -20 -20 -20 -20 -20 -20 3 1 -20 -20 -20 -20 -20 -20 -20 -20 -20 10 13 -20 1 18 22 14 -20 4 -18 -20 -20 22 12 14 4 -20
-19 -20 -20 -20 -20 -20 -20 -20 -20 -20 -20 -20 -20 -20 -20 -20 -20 -20 -20 9 -20 -20 -20 -20 -20 -20 -20 -20 -20 -4 15 6 12 -18 16 3 26 22 23 10 -17 -20 4 -17 14 13 -0
-20 3 -19 -20 -20 -20 -20 -20 -20 -20 -20 -20 -20 -20 -20 -20 -20 -20 -5 -20 -20 -20 -20 -20 -20 -20 -20 -20 -20 -20 -18 -20 16 -7 -20 15 -6 19 3 -20 -20 4 3 23 29 19 7
-20 -16 -20 -8 -20 -20 -20 -20 -20 -20 -20 -20 -20 -20 -20 -20 -20 -10 10 -14 -20 -20 -20 -20 -20 -20 -20 -20 -20 -8 -10 -4 -20 -20 8 -0 14 12 6 21 22 6 -6 -4 -4 17 7
-20 5 -4 -20 -20 -20 -20 -20 -20 -20 -20 -20 -20 -7 -20 -20 2 -12 2 -20 -20 -20 -20 -20 -20 -20 -20 -20 -1 -20 15 -20 -20 -20 -20 0 -2 -2 2 -12 -19 6 32 26 17 20 16
6 -5 -13 -20 -20 -20 -20 -20 -20 -20 -20 -20 -18 -14 -20 -20 15 6 -20 -20 -20 -20 -20 -20 -20 -20 -20 -19 2 -7 -20 -20 -20 -20 16 -20 19 5 9 -11 -17 -20 -3 9 9 15 12
5 8 -20 8 -20 -20 -20 -20 -20 -20 -20 -20 -9 -16 -15 -20 -20 -14 -18 -20 -20 -20 -20 -20 -20 -20 6 -9 -14 -12 -20 -6 -20 -20 -20 -2 -2 10 6 18 6 -20 -20 -20 8 4 -3
-20 -16 -20 5 -20 -20 -20 -20 -20 -20 -20 -20 -0 -18 -18 4 -11 -18 -20 -20 -20 -12 -20 -20 -20 -20 -14 11 -4 -1 -20 -20 -20 -20 -20 19 -20 -20 -20 -20 -20 -20 -20 -20 -20 -20 2
-20 -20 0 -10 7 -20 -20 -20 -20 -20 -20 -20 -18 -0 -20 -20 -20 -20 -20 -20 -20 -20 -10 2 6 -20 -20 12 7 12 9 -20 8 -20 -20 11 -4 -15 -20 -20 -20 -20 -20 -20 -20 -20 -20
3 2 -20 -20 -15 -20 -20 -20 -20 -20 -20 -9 -20 -20 -20 -19 -20 -20 -20 -9 -20 -20 -20 -20 -20 -5 8 -17 2 -20 -20 -20 -20 3 4 -7 12 7 5 -20 -20 -19 -20 -20 -20 -20 -20
8 10 -18 -20 -20 5 8 -20 -20 -20 -20 -15 -20 -16 2 -8 -20 -20 -20 -20 -20 -20 -12 -20 -20 -5 -20 -20 -20 -20 -20 -20 -20 -20 -20 4 8 20 12 5 10 -17 -20 -20 -20 -20 -20
8 8 5 -20 3 -18 8 1 -20 -20 -20 -0 -9 6 10 3 -20 -20 -20 -20 -20 -20 -20 -20 -20 -20 -20 -20 9 6 -20 -20 -12 -20 -20 -20 10 21 15 12 -15 -20 15 -20 -20 -20 -20
5 2 5 7 -0 -15 8 -12 7 -4 -0 7 11 -5 13 -3 -19 -20 -20 -20 -15 1 4 -18 -20 -20 -20 10 4 8 4 -5 -20 -20 -20 -20 -2 18 14 22 14 -14 0 -8 -20 -18 -20
-19 4 5 3 2 2 -20 7 -10 -20 -20 5 -7 9 16 16 -20 -20 -1 -6 -15 -12 0 -14 3 -9 5 16 14 13 9 -10 -13 -7 -2 -8 -17 10 13 13 11 -20 -19 -20 -3 -4 13
11 9 7 5 4 -4 -20 2 9 9 -2 -20 8 4 17 10 5 -20 -20 -20 -20 -20 2 -8 -6 -4 9 13 11 7 9 2 4 -20 -20 -7 7 14 23 18 12 -19 -10 -3 -9 -19 -20
11 10 10 7 7 5 2 -3 -20 -1 7 -17 8 5 8 18 4 -14 -14 -20 -20 -20 -15 -4 -17 3 10 12 14 16 11 19 12 12 -20 -4 -12 11 -16 8 -1 -12 -18 -20 -20 -4 -20